When you browse on this site, cookies collect data to enhance your experience and personalize the content and advertising you see.
Visit our Privacy Policy to learn more. By continuing to use the site, you agree to this use of cookies and data.
  • In Sweden
  • List of Countries
  • For 7 days
  • Water Temperature
  • Satellite Maps
  • Weather Map
  • Weather Widgets
  • user-avatar
    Login

    Hourly Weather Pontypridd

    Today, 19 January, Saturday

    Time Temperature Precipitation Wind Pressure Humidity
    00:00 +5°C° 0.2 mm 4 mps 744 mmHg 94%
    01:00 +5°C° 0 mm 4 mps 744 mmHg 94%
    02:00 +5°C° 0 mm 4 mps 743 mmHg 94%
    03:00 +5°C° 0 mm 4 mps 743 mmHg 94%
    04:00 +5°C° 0.2 mm 4 mps 743 mmHg 94%
    05:00 +5°C° 0.2 mm 4 mps 743 mmHg 95%
    06:00 +5°C° 0.2 mm 4 mps 743 mmHg 95%
    07:00 +5°C° 0.4 mm 4 mps 743 mmHg 95%
    08:00 +5°C° 0.4 mm 4 mps 743 mmHg 96%
    09:00 +5°C° 0.4 mm 3 mps 743 mmHg 96%
    10:00 +7°C° 0.2 mm 3 mps 743 mmHg 94%
    11:00 +7°C° 0.2 mm 3 mps 743 mmHg 93%
    12:00 +8°C° 0.2 mm 2 mps 743 mmHg 92%
    13:00 +8°C° 0.1 mm 2 mps 743 mmHg 91%
    14:00 +9°C° 0.1 mm 1 mps 743 mmHg 90%
    15:00 +9°C° 0.1 mm 1 mps 743 mmHg 89%
    16:00 +8°C° 0.1 mm 1 mps 743 mmHg 91%
    17:00 +8°C° 0.1 mm 1 mps 743 mmHg 92%
    18:00 +7°C° 0.1 mm 1 mps 743 mmHg 94%
    19:00 +6°C° 0 mm 2 mps 744 mmHg 95%
    20:00 +6°C° 0 mm 2 mps 744 mmHg 95%
    21:00 +5°C° 0 mm 2 mps 744 mmHg 96%
    22:00 +6°C° 0 mm 2 mps 745 mmHg 96%
    23:00 +6°C° 0 mm 2 mps 745 mmHg 96%

    Tomorrow, 20 January, Sunday

    Time Temperature Precipitation Wind Pressure Humidity
    00:00 +6°C° 0 mm 2 mps 746 mmHg 96%
    01:00 +5°C° 0 mm 2 mps 746 mmHg 96%
    02:00 +5°C° 0 mm 2 mps 747 mmHg 96%
    03:00 +5°C° 0 mm 2 mps 747 mmHg 95%
    04:00 +4°C° 0.1 mm 3 mps 748 mmHg 95%
    05:00 +4°C° 0.1 mm 3 mps 748 mmHg 95%
    06:00 +4°C° 0.1 mm 3 mps 749 mmHg 94%
    07:00 +4°C° 0 mm 3 mps 750 mmHg 94%
    08:00 +4°C° 0 mm 3 mps 751 mmHg 93%
    09:00 +3°C° 0 mm 3 mps 751 mmHg 93%
    10:00 +4°C° 0 mm 3 mps 752 mmHg 91%
    11:00 +4°C° 0 mm 3 mps 753 mmHg 89%
    12:00 +4°C° 0 mm 3 mps 753 mmHg 86%
    13:00 +4°C° 0 mm 3 mps 754 mmHg 85%
    14:00 +5°C° 0 mm 3 mps 754 mmHg 84%
    15:00 +5°C° 0 mm 4 mps 754 mmHg 83%
    16:00 +4°C° 0 mm 3 mps 755 mmHg 84%
    17:00 +3°C° 0 mm 3 mps 756 mmHg 86%
    18:00 +2°C° 0 mm 3 mps 756 mmHg 88%
    19:00 +3°C° 0 mm 2 mps 757 mmHg 88%
    20:00 +3°C° 0 mm 2 mps 757 mmHg 88%
    21:00 +3°C° 0 mm 2 mps 758 mmHg 88%
    22:00 +4°C° 0 mm 1 mps 758 mmHg 89%
    23:00 +4°C° 0 mm 1 mps 758 mmHg 90%

    Day after tomorrow, 21 January, Monday

    Time Temperature Precipitation Wind Pressure Humidity
    00:00 +4°C° 0 mm 1 mps 759 mmHg 92%
    01:00 +4°C° 0 mm 1 mps 759 mmHg 91%
    02:00 +5°C° 0 mm 1 mps 759 mmHg 91%
    03:00 +5°C° 0 mm 1 mps 759 mmHg 90%
    04:00 +5°C° 0 mm 1 mps 759 mmHg 90%
    05:00 +4°C° 0 mm 1 mps 759 mmHg 89%
    06:00 +4°C° 0 mm 1 mps 759 mmHg 89%
    07:00 +4°C° 0 mm 1 mps 759 mmHg 88%
    08:00 +4°C° 0 mm 1 mps 758 mmHg 87%
    09:00 +3°C° 0 mm 0 mps 758 mmHg 87%
    10:00 +5°C° 0 mm 1 mps 758 mmHg 83%
    11:00 +5°C° 0 mm 2 mps 757 mmHg 80%
    12:00 +4°C° 0 mm 3 mps 757 mmHg 76%
    13:00 +5°C° 0 mm 4 mps 756 mmHg 77%
    14:00 +5°C° 0 mm 5 mps 755 mmHg 77%
    15:00 +4°C° 0 mm 7 mps 754 mmHg 77%
    16:00 +4°C° 0 mm 7 mps 752 mmHg 78%
    17:00 +2°C° 0 mm 8 mps 751 mmHg 80%
    18:00 +2°C° 0 mm 9 mps 750 mmHg 81%
    19:00 +3°C° 0.6 mm 9 mps 749 mmHg 83%
    20:00 +3°C° 0.6 mm 10 mps 747 mmHg 85%
    21:00 +3°C° 0.6 mm 11 mps 746 mmHg 87%
    22:00 +2°C° 1.9 mm 10 mps 745 mmHg 85%
    23:00 +1°C° 1.9 mm 9 mps 745 mmHg 82%

    22 January, Tuesday

    Time Temperature Precipitation Wind Pressure Humidity
    00:00 0°C° 1.9 mm 8 mps 744 mmHg 80%
    01:00 0°C° 0 mm 7 mps 744 mmHg 79%
    02:00 -1°C° 0 mm 7 mps 744 mmHg 78%
    03:00 -1°C° 0 mm 7 mps 743 mmHg 78%
    04:00 -1°C° 0 mm 7 mps 743 mmHg 78%
    05:00 -1°C° 0 mm 7 mps 743 mmHg 78%
    06:00 -1°C° 0 mm 7 mps 742 mmHg 78%
    07:00 -1°C° 0 mm 7 mps 742 mmHg 78%
    08:00 -1°C° 0 mm 7 mps 742 mmHg 77%
    09:00 -1°C° 0 mm 7 mps 742 mmHg 77%
    10:00 -1°C° 0 mm 8 mps 741 mmHg 74%
    11:00 0°C° 0 mm 9 mps 741 mmHg 70%
    12:00 0°C° 0 mm 9 mps 741 mmHg 67%
    13:00 0°C° 0.1 mm 9 mps 741 mmHg 66%
    14:00 -1°C° 0.1 mm 9 mps 741 mmHg 66%
    15:00 -1°C° 0.1 mm 9 mps 740 mmHg 65%
    16:00 -1°C° 0 mm 8 mps 741 mmHg 67%
    17:00 -2°C° 0 mm 8 mps 741 mmHg 70%
    18:00 -2°C° 0 mm 7 mps 741 mmHg 72%
    19:00 -2°C° 0 mm 7 mps 741 mmHg 73%
    20:00 -2°C° 0 mm 7 mps 741 mmHg 73%
    21:00 -2°C° 0 mm 7 mps 741 mmHg 73%
    22:00 -2°C° 0 mm 7 mps 741 mmHg 74%
    23:00 -2°C° 0 mm 7 mps 741 mmHg 75%

    23 January, Wednesday

    Time Temperature Precipitation Wind Pressure Humidity
    00:00 -2°C° 0 mm 6 mps 740 mmHg 76%
    01:00 -2°C° 0 mm 6 mps 740 mmHg 76%
    02:00 -3°C° 0 mm 6 mps 740 mmHg 76%
    03:00 -3°C° 0 mm 6 mps 740 mmHg 76%
    04:00 -3°C° 0 mm 6 mps 740 mmHg 76%
    05:00 -3°C° 0 mm 6 mps 740 mmHg 77%
    06:00 -3°C° 0 mm 6 mps 740 mmHg 77%
    07:00 -3°C° 0 mm 6 mps 740 mmHg 77%
    08:00 -2°C° 0 mm 6 mps 740 mmHg 77%
    09:00 -2°C° 0 mm 6 mps 740 mmHg 77%
    10:00 -1°C° 0 mm 6 mps 741 mmHg 73%
    11:00 +1°C° 0 mm 6 mps 741 mmHg 69%
    12:00 +2°C° 0 mm 6 mps 742 mmHg 65%
    13:00 +2°C° 0 mm 6 mps 742 mmHg 66%
    14:00 +2°C° 0 mm 6 mps 742 mmHg 66%
    15:00 +2°C° 0 mm 6 mps 742 mmHg 67%
    16:00 +1°C° 0 mm 5 mps 743 mmHg 71%
    17:00 0°C° 0 mm 5 mps 743 mmHg 74%
    18:00 -1°C° 0 mm 5 mps 743 mmHg 77%
    19:00 -2°C° 0 mm 6 mps 744 mmHg 77%
    20:00 -1°C° 0 mm 6 mps 744 mmHg 77%
    21:00 -1°C° 0 mm 7 mps 744 mmHg 77%
    22:00 -1°C° 0 mm 6 mps 744 mmHg 79%
    23:00 -1°C° 0 mm 6 mps 744 mmHg 80%

    24 January, Thursday

    Time Temperature Precipitation Wind Pressure Humidity
    00:00 -1°C° 0 mm 6 mps 744 mmHg 81%
    01:00 -1°C° 0 mm 8 mps 744 mmHg 79%
    02:00 0°C° 0 mm 9 mps 744 mmHg 76%
    03:00 -1°C° 0 mm 11 mps 744 mmHg 73%
    04:00 0°C° 0 mm 10 mps 745 mmHg 77%
    05:00 0°C° 0 mm 10 mps 745 mmHg 80%
    06:00 0°C° 0 mm 9 mps 746 mmHg 84%
    07:00 -1°C° 0 mm 9 mps 747 mmHg 84%
    08:00 -2°C° 0 mm 8 mps 748 mmHg 84%
    09:00 -2°C° 0 mm 8 mps 749 mmHg 84%
    10:00 -1°C° 0 mm 7 mps 750 mmHg 80%
    11:00 +1°C° 0 mm 6 mps 751 mmHg 77%
    12:00 +2°C° 0 mm 5 mps 751 mmHg 73%
    13:00 +2°C° 0 mm 5 mps 751 mmHg 73%
    14:00 +2°C° 0 mm 5 mps 751 mmHg 73%
    15:00 +2°C° 0 mm 5 mps 752 mmHg 73%
    16:00 +1°C° 0 mm 5 mps 752 mmHg 78%
    17:00 0°C° 0 mm 4 mps 752 mmHg 82%
    18:00 -1°C° 0 mm 4 mps 752 mmHg 87%
    19:00 -1°C° 0 mm 5 mps 752 mmHg 87%
    20:00 -1°C° 0 mm 5 mps 753 mmHg 88%
    21:00 -1°C° 0 mm 5 mps 753 mmHg 88%
    22:00 -1°C° 0 mm 5 mps 753 mmHg 87%
    23:00 -2°C° 0 mm 5 mps 753 mmHg 86%
    Show more